sat.trackr.live / text

‹ back to catalog

KUIPER-00010

NORAD 63726 · 2025-088C

PAYLOAD ACTIVE UNKNOWN

§ Identity

Operator
Country
US
Launch date
2025-04-28
Launch site
AFETR
Launch vehicle
Mass (kg)
RCS (m²)

External: N2YO · Heavens-Above · Gunter

§ Orbital elements

Epoch: 2026-09-21T09:49:09.899040Z

Period
97.30 min
Inclination
51.9026°
Eccentricity
0.0000378
Mean motion
14.79926358 rev/d
Perigee alt
629.3 km
Apogee alt
629.8 km
Semi-major
7,007.7 km
B*
8.6648e-5
RAAN
297.6498°
Arg perigee
61.8745°
Mean anomaly
298.2255°
Rev number
7,671

§ Raw data

KUIPER-000101 63726U 25088C   26264.40914235  .00000439  00000+0  86648-4 0  99962 63726  51.9026 297.6498 0000378  61.8745 298.2255 14.79926358 76711

JSON: /api/v1/satellites/63726 · /tle

For live sub-satellite position, see the globe view (requires WebGL).

§ Visibility from observer

Set your observer location to see the next 7 days of passes ≥ 10°. The values pass through the URL so the page stays shareable.

No JS? Fill the form by hand. The geolocation button needs JavaScript.